SY4AIL-13 Weather Reports


time (UTC)temp
C
wind
direction
speed
KPH
gust
KPH
rain 1hr
cm
rain 24hr
cm
rain mn
cm
humidity
%
barometer
mb
20260906072343 27 0.0 0.0 0.00 0.00 0.00 55 1023.6
20260906071359 26 0.0 0.0 0.00 0.00 0.00 56 1023.1
20260906070343 26 0.0 0.0 0.00 0.00 0.00 57 1023.9
20260906065359 25 0.0 0.0 0.00 0.00 0.00 59 1023.2
20260906064353 25 0.0 0.0 0.00 0.00 0.00 61 1023.3
20260906063343 25 0.0 0.0 0.00 0.00 0.00 60 1023.4
20260906062358 24 0.0 0.0 0.00 0.00 0.00 61 1023.6
20260906061345 24 0.0 0.0 0.00 0.00 0.00 60 1023.0
20260906060343 23 0.0 0.0 0.00 0.00 0.00 59 1023.9
20260906055343 23 0.0 0.0 0.00 0.00 0.00 61 1023.0
20260906054343 23 0.0 0.0 0.00 0.00 0.00 66 1023.1
20260906053343 23 0.0 0.0 0.00 0.00 0.00 72 1022.9
20260906052343 22 0.0 0.0 0.00 0.00 0.00 73 1023.1
20260906051343 22 0.0 0.0 0.00 0.00 0.00 76 1023.4
20260906050343 21 0.0 0.0 0.00 0.00 0.00 77 1023.2
20260906045358 21 0.0 0.0 0.00 0.00 0.00 78 1022.9
20260906044415 21 0.0 0.0 0.00 0.00 0.00 79 1023.4
20260906043353 21 0.0 0.0 0.00 0.00 0.00 79 1023.9
20260906042344 21 0.0 0.0 0.00 0.00 0.00 78 1022.5
20260906041343 20 0.0 0.0 0.00 0.00 0.00 79 1023.4
20260906040343 21 0.0 0.0 0.00 0.00 0.00 78 1023.1
20260906035344 21 0.0 0.0 0.00 0.00 0.00 79 1022.8
20260906034343 20 0.0 0.0 0.00 0.00 0.00 79 1023.7
20260906033343 21 0.0 0.0 0.00 0.00 0.00 77 1022.7
20260906032343 21 0.0 0.0 0.00 0.00 0.00 81 1022.1
20260906031343 20 0.0 0.0 0.00 0.00 0.00 80 1024.3
20260906030343 21 0.0 0.0 0.00 0.00 0.00 79 1022.3
20260906025343 21 0.0 0.0 0.00 0.00 0.00 78 1022.8
20260906024358 21 0.0 0.0 0.00 0.00 0.00 78 1023.2
20260906023358 21 0.0 0.0 0.00 0.00 0.00 77 1023.0
20260906022343 21 0.0 0.0 0.00 0.00 0.00 78 1023.0
20260906021343 21 0.0 0.0 0.00 0.00 0.00 76 1022.7
20260906020343 21 0.0 0.0 0.00 0.00 0.00 78 1022.7
20260906015358 21 0.0 0.0 0.00 0.00 0.00 76 1023.4
20260906014343 22 0.0 0.0 0.00 0.00 0.00 73 1023.1
20260906013343 22 0.0 0.0 0.00 0.00 0.00 72 1021.7
20260906012343 22 0.0 0.0 0.00 0.00 0.00 72 1023.9
20260906011342 22 0.0 0.0 0.00 0.00 0.00 72 1022.6
20260906010400 22 0.0 0.0 0.00 0.00 0.00 71 1023.2
20260906005343 23 0.0 0.0 0.00 0.00 0.00 70 1022.9
20260906004343 23 0.0 0.0 0.00 0.00 0.00 68 1022.6
20260906003343 23 0.0 0.0 0.00 0.00 0.00 67 1022.7
20260906002342 23 0.0 0.0 0.00 0.00 0.00 63 1021.5
20260906001342 23 0.0 0.0 0.00 0.00 0.00 70 1022.2
20260906000342 22 0.0 0.0 0.00 0.00 0.00 76 1022.4
20260905235342 22 0.0 0.0 0.00 0.00 0.00 77 1023.2
20260905234343 22 0.0 0.0 0.00 0.00 0.00 76 1022.6
20260905233342 22 0.0 0.0 0.00 0.00 0.00 77 1022.4
20260905232342 22 0.0 0.0 0.00 0.00 0.00 78 1023.5
20260905231343 23 0.0 0.0 0.00 0.00 0.00 76 1022.2
20260905230343 22 0.0 0.0 0.00 0.00 0.00 76 1023.5
20260905225342 23 0.0 0.0 0.00 0.00 0.00 76 1023.0
20260905224358 23 0.0 0.0 0.00 0.00 0.00 75 1023.2
20260905223342 23 0.0 0.0 0.00 0.00 0.00 73 1023.8
20260905222343 24 0.0 0.0 0.00 0.00 0.00 70 1023.5
20260905221343 25 0.0 0.0 0.00 0.00 0.00 66 1022.4
20260905220342 25 0.0 0.0 0.00 0.00 0.00 65 1022.5
20260905215343 24 0.0 0.0 0.00 0.00 0.00 67 1022.2
20260905214343 24 0.0 0.0 0.00 0.00 0.00 70 1023.1
20260905213342 24 0.0 0.0 0.00 0.00 0.00 70 1023.0
20260905212343 24 0.0 0.0 0.00 0.00 0.00 69 1021.8
20260905211342 23 0.0 0.0 0.00 0.00 0.00 70 1023.2
20260905210344 23 0.0 0.0 0.00 0.00 0.00 67 1023.4
20260905205342 24 0.0 0.0 0.00 0.00 0.00 67 1022.8
20260905204358 24 0.0 0.0 0.00 0.00 0.00 66 1023.0
20260905203345 25 0.0 0.0 0.00 0.00 0.00 67 1023.2
20260905202413 25 0.0 0.0 0.00 0.00 0.00 65 1022.9
20260905201342 25 0.0 0.0 0.00 0.00 0.00 67 1023.6
20260905200343 26 0.0 0.0 0.00 0.00 0.00 63 1022.4
20260905195342 25 0.0 0.0 0.00 0.00 0.00 63 1022.4
20260905194343 25 0.0 0.0 0.00 0.00 0.00 61 1022.5
20260905193342 25 0.0 0.0 0.00 0.00 0.00 64 1029.4
20260905192739 30 0.0 0.0 0.00 0.00 0.00 49 1021.4
20260905173342 30 0.0 0.0 0.00 0.00 0.00 46 1021.1
20260905172357 30 0.0 0.0 0.00 0.00 0.00 45 1021.3
20260905171357 30 0.0 0.0 0.00 0.00 0.00 47 1021.3
20260905170342 30 0.0 0.0 0.00 0.00 0.00 46 1021.3
20260905165357 31 0.0 0.0 0.00 0.00 0.00 42 1021.2
20260905164342 31 0.0 0.0 0.00 0.00 0.00 40 1021.1
20260905163342 31 0.0 0.0 0.00 0.00 0.00 39 1020.9
20260905162357 32 0.0 0.0 0.00 0.00 0.00 38 1020.8
20260905161358 32 0.0 0.0 0.00 0.00 0.00 37 1020.7
20260905160342 32 0.0 0.0 0.00 0.00 0.00 37 1020.8
20260905155342 32 0.0 0.0 0.00 0.00 0.00 36 1021.0
20260905154342 32 0.0 0.0 0.00 0.00 0.00 34 1020.5
20260905153343 32 0.0 0.0 0.00 0.00 0.00 34 1021.0
20260905152342 33 0.0 0.0 0.00 0.00 0.00 33 1020.8
20260905151342 33 0.0 0.0 0.00 0.00 0.00 33 1021.0
20260905150342 33 0.0 0.0 0.00 0.00 0.00 34 1020.6
20260905145342 33 0.0 0.0 0.00 0.00 0.00 34 1020.8
20260905144357 33 0.0 0.0 0.00 0.00 0.00 32 1021.0
20260905143413 33 0.0 0.0 0.00 0.00 0.00 34 1020.6
20260905142342 33 0.0 0.0 0.00 0.00 0.00 33 1021.2
20260905141342 33 0.0 0.0 0.00 0.00 0.00 32 1020.7
20260905140342 33 0.0 0.0 0.00 0.00 0.00 33 1021.0
20260905135357 33 0.0 0.0 0.00 0.00 0.00 33 1021.1
20260905134342 34 0.0 0.0 0.00 0.00 0.00 32 1021.1
20260905133413 34 0.0 0.0 0.00 0.00 0.00 33 1020.9
20260905132341 33 0.0 0.0 0.00 0.00 0.00 32 1022.1
20260905131342 34 0.0 0.0 0.00 0.00 0.00 33 1020.6
20260905130341 33 0.0 0.0 0.00 0.00 0.00 33 1021.7
20260905125341 34 0.0 0.0 0.00 0.00 0.00 32 1021.6
20260905124342 33 0.0 0.0 0.00 0.00 0.00 33 1021.2
20260905123351 33 0.0 0.0 0.00 0.00 0.00 33 1023.0
20260905122341 34 0.0 0.0 0.00 0.00 0.00 32 1022.2
20260905121341 34 0.0 0.0 0.00 0.00 0.00 32 1022.5
20260905120357 34 0.0 0.0 0.00 0.00 0.00 31 1022.5
20260905115341 35 0.0 0.0 0.00 0.00 0.00 33 1021.0
20260905114342 33 0.0 0.0 0.00 0.00 0.00 33 1023.2
20260905113357 33 0.0 0.0 0.00 0.00 0.00 33 1023.1
20260905112341 34 0.0 0.0 0.00 0.00 0.00 33 1022.4
20260905111341 33 0.0 0.0 0.00 0.00 0.00 34 1022.2
20260905110341 33 0.0 0.0 0.00 0.00 0.00 35 1022.4
20260905105342 33 0.0 0.0 0.00 0.00 0.00 37 1023.7
20260905104342 33 0.0 0.0 0.00 0.00 0.00 36 1022.8
20260905103341 33 0.0 0.0 0.00 0.00 0.00 37 1021.3
20260905102342 32 0.0 0.0 0.00 0.00 0.00 37 1022.7
20260905101356 32 0.0 0.0 0.00 0.00 0.00 38 1023.9
20260905100341 32 0.0 0.0 0.00 0.00 0.00 38 1024.2
20260905095341 32 0.0 0.0 0.00 0.00 0.00 39 1023.0
20260905094341 32 0.0 0.0 0.00 0.00 0.00 38 1023.2
20260905093341 31 0.0 0.0 0.00 0.00 0.00 39 1024.3
20260905092341 32 0.0 0.0 0.00 0.00 0.00 39 1024.3
20260905091341 32 0.0 0.0 0.00 0.00 0.00 39 1023.2
20260905090341 31 0.0 0.0 0.00 0.00 0.00 40 1023.9
20260905085357 31 0.0 0.0 0.00 0.00 0.00 41 1023.2
20260905084341 30 0.0 0.0 0.00 0.00 0.00 42 1023.9
20260905083341 30 0.0 0.0 0.00 0.00 0.00 41 1023.3
20260905082341 29 0.0 0.0 0.00 0.00 0.00 43 1023.3
20260905081341 28 0.0 0.0 0.00 0.00 0.00 47 1023.7
20260905080341 28 0.0 0.0 0.00 0.00 0.00 48 1025.0
20260905075341 28 0.0 0.0 0.00 0.00 0.00 48 1023.0
20260905074341 27 0.0 0.0 0.00 0.00 0.00 50 1024.4
20260905073341 27 0.0 0.0 0.00 0.00 0.00 51 1024.7